www.pogodaiklimat.ru

Погода и климат >> Архив погоды >> Киргизия >> Кара-Балта


ПОГОДА в Кара-Балте

  • Прогноз погоды в Кара-Балте
  • Монитор погоды в Кара-Балте

АРХИВ ПОГОДЫ в Кара-Балте

Время (UTC), дата Ветер
(напр.,м/с)
 
Видим.   Явления Облачность Т
(С)
Тd
(С)
f
(%)
Тe
(С)
Тes
(С)
Комфортность P
(гПа)
Po
(гПа)
Тmin
(С)
Tmax
(С)
R
(мм)
R24
(мм)
S
(см)
03 9.06 В 2 20 км 6/6 600 м
[Cu med, cong]
+15.6 +13.2 86 +15 +19 1013.4 925.2 +13.6
06 9.06 В 2 50 км 8/8 1000 м
[Cu med, cong]
+20.6 +13.6 64 +24 +27 комфорт 1009.4 923.0
09 9.06 С 2 20 км 9/9 600 м
[Cb cap]
+21.8 +11.4 52 +24 +26 комфорт 1008.5 922.4
12 9.06 В 2 20 км гроза, ливневой дождь 9/9 600 м
[Cb cap]
+19.0 +15.4 80 +21 +21 комфорт 1008.7 922.2
15 9.06 Ю 2 20 км {гроза} 9/9 600 м
[Cb cap]
+19.4 +14.0 71 +22 +22 комфорт 1009.2 922.5 +22.8
21 9.06 З 2 н/о {ливн. осадки} 10/10 600 м
[Cb cap]
+14.2 +14.2 100 +14 +14 1012.9 924.4
00 10.06 Ю 2 50 км {ливн. осадки} 9/6 600 м
[Cb cap Ci]
+13.8 +13.0 95 +13 +13 1013.1 924.4
03 10.06 С 2 50 км 4/3 600 м
[Cu med, cong Ci fib]
+16.8 +12.8 77 +17 +22 1013.5 925.6 +13.6 0.0
06 10.06 С 2 20 км 9/8 600 м
[Cb cap Ci]
+19.3 +13.5 69 +21 +25 комфорт 1012.8 925.8
09 10.06 З 4 20 км гроза без осадков 10/10 600 м
[Cb cap]
+17.8 +14.1 79 +18 +18 1013.7 926.1
12 10.06 З 2 10 км слаб. ливневой дождь {гроза} 10/10 600 м
[Cb cap]
+13.4 +13.4 100 +13 +13 1018.9 929.6
15 10.06 Ю 2 50 км {ливн. осадки} 9/6 600 м
[Cb cap Ac trans Ci]
+14.6 +11.2 80 +14 +14 1017.2 928.3 +20.6 1
21 10.06 Ю 2 н/о 9/0
[Ac und]
+11.1 +11.1 100 +10 +10 1018.5 928.5
00 11.06 Ю 2 50 км 9/0
[Ac und Ci]
+11.6 +10.6 94 +10 +10 1015.4 928.5
03 11.06 С 2 50 км 9/3 600 м
[Cu med, cong Ac und Ci]
+16.8 +11.4 70 +17 +20 1017.2 929.0 +11.1
06 11.06 СЗ 2 20 км 9/6 600 м
[Cb cap]
+17.0 +11.5 70 +17 +22 1017.2 929.0
09 11.06 С 2 20 км 9/8
[Cb cap]
+20.6 +12.4 59 +23 +26 комфорт 1015.2 928.2
12 11.06 З 2 20 км 9/6 600 м
[Cb cap Ci]
+19.6 +10.4 55 +21 +23 комфорт 1015.8 928.5
15 11.06 Ю 2 50 км 9/0 100 м
[Ac und Ci]
+16.2 +10.7 70 +16 +16 1016.1 927.8 +21.0
18 11.06 Ю 2 н/о 9/9 600 м
[Cb cap]
+15.0 +10.6 75 +15 +15 1016.6 927.9
21 11.06 Ю 2 н/о 3/0
[Ci fib]
+14.4 +9.3 71 +14 +14 1016.3 927.4
00 12.06 Ю 2 50 км 3/0
[Ci fib]
+13.0 +7.7 70 +12 +12 1016.9 927.5
03 12.06 З 2 50 км 8/3
[Cu med, cong Ci]
+20.7 +10.2 51 +23 +28 комфорт 1014.2 927.3 +13.0
06 12.06 С 2 50 км 9/3 600 м
[Cu med, cong Ci]
+20.3 +12.1 59 +23 +34 комфорт 1015.3 928.2
09 12.06 С 2 10 км 10/10 600 м
[Cb cap]
+19.6 +11.0 58 +21 +21 комфорт 927.9
12 12.06 Ю 2 50 км 9/6 1000 м
[Cb cap Ac trans Ci]
+20.2 +13.6 66 +23 +24 комфорт 1014.8 927.9
15 12.06 Ю 2 50 км 9/3 600 м
[Cb cap Ac trans Ci]
+19.8 +11.7 60 +22 +22 комфорт 1013.9 926.9 +22.3
18 12.06 Ю 2 н/о 9/3 600 м
[Cb cap Ac und]
+18.3 +11.3 64 +19 +19 1013.6 926.1
21 12.06 Ю 2 н/о ясно +17.0 +9.8 63 +17 +17 1012.5 924.7
00 13.06 Ю 2 50 км 1/0
[Ci fib]
+16.8 +9.3 61 +17 +17 1012.4 924.5
03 13.06 З 2 50 км 1/1 1000 м
[Cu med, cong]
+24.0 +12.1 47 +26 +33 жарко 1010.0 924.4 +16.5
06 13.06 С 2 50 км 3/3 600 м
[Cu med, cong]
+26.0 +12.3 43 +28 +41 жарко 1008.7 923.8
09 13.06 З 2 50 км 4/4 600 м
[Cb cap]
+28.7 +13.4 39 +30 +40 жарко 1007.3 923.2
12 13.06 В 2 50 км 8/8 1000 м
[Cu med, cong]
+28.4 +12.8 38 +30 +31 жарко 1006.6 922.5
15 13.06 ЮВ 2 50 км 1/0
[Ac trans]
+23.2 +13.0 53 +26 +26 жарко 1007.8 922.2 +29.2
18 13.06 Ю 2 н/о ясно +19.8 +11.7 60 +22 +22 комфорт 1007.9 921.3
21 13.06 Ю 2 н/о ясно +18.4 +11.1 62 +19 +19 1007.1 920.1
00 14.06 Ю 2 50 км 1/0
[Ac trans]
+16.8 +10.2 65 +17 +17 1007.6 920.1
03 14.06 С 2 50 км ясно +24.2 +14.4 54 +27 +35 жарко 1004.6 619.6 +16.8
06 14.06 С 2 50 км 3/3 1000 м
[Cu med, cong]
+28.0 +15.9 48 +31 +44 душно 1001.4 917.8
09 14.06 С 2 20 км 8/6 600 м
[Cb cap]
+29.0 +15.0 43 +32 +36 душно 1001.6 918.1
12 14.06 З 6 50 км 9/9 1000 м
[Cb cap]
+24.4 +11.3 44 +26 +26 жарко 1003.6 918.6
15 14.06 Ю 2 50 км {ливн. осадки} 8/6 1000 м
[Cb cap Ci]
+21.4 +12.0 55 +24 +24 комфорт 1004.5 918.7 +29.0 0.0
21 14.06 Ю 2 н/о 1/0
[Ci fib]
+17.2 +10.3 64 +18 +18 1004.8 917.8
03 15.06 Ю 4 50 км 9/8 1000 м
[Cb cap Ci]
+28.6 +15.6 45 +31 +32 жарко 1001.6 918.1 +17.2
15 15.06 Ю 2 50 км слаб. ливневой дождь 9/9 600 м
[Cb cap]
+17.9 +16.5 92 +18 +18 1010.0 922.9 +29.3 0.5

 

Местоположение метеостанции Кара-Балта (Чуйская область, Киргизия): широта 42.80 долгота 73.82 высота над уровнем моря 771 м.

В архиве по умолчанию представлена погода в Кара-Балте за последнюю неделю. Архивные данные за месяц целиком и за предыдущие месяцы, начиная с января 2011 года, Вы можете получить, выбрав интересующий диапазон дат из раскрывающегося списка и нажав кнопку "Ввод!".


*Определитесь, кто Вы:
робот инопланетянин человек

Внимание! Время в таблицах - всемирное. Для получения местного времени необходимо прибавить поправку, которая равна 5 ч.

Смотрите также архив погоды в соседних городах и на ближайших метеорологических станциях:

Погода в Яны-Жере (Чуйская область, Киргизия) (27 км)
Погода в Тео-Ашуу (Чуйская область, Киргизия) (36 км)
Погода в Мерке (Жамбылская область, Казахстан) (53 км)
Погода в Байтике (Чуйская область, Киргизия) (58 км)
Погода в Бишкеке (город Бишкек, Киргизия) (58 км)
Погода в Бериктасе (Жамбылская область, Казахстан) (71 км)
Погода в Сусамыре (Чуйская область, Киргизия) (73 км)
Погода в Иссык-Ате (город Бишкек, Киргизия) (86 км)
Погода в Кулане (Жамбылская область, Казахстан) (89 км)
Погода в Толе Би (Жамбылская область, Казахстан) (100 км)

Пояснения к столбцам:

Ветер - указаны скорость ветра в м/с - средняя за 10 мин, порывы в срок и между сроками (в фигурных скобках) и направление, откуда дует ветер: С - северный, СВ - северо-восточный, В - восточный, ЮВ - юго-восточный, Ю - южный, ЮЗ - юго-западный, З - западный, СЗ - северо-западный.
Видимость - горизонтальная дальность видимости в метрах или километрах. При видимости от 1 до 10 км при отсутствии осадков обычно наблюдается дымка, при ухудшении видимости до 1 км и менее - туман. В сухую погоду видимость может ухудшаться дымом, пылью или мглою.
Явления - указаны атмосферные явления, наблюдавшиеся в срок или в последний час перед сроком; фигурными скобками обозначены явления, наблюдавшиеся между сроками (за 1-3 часа до срока); квадратными скобками обозначены град или гололедные отложения с указанием их диаметра в мм.
Облачность - указаны через наклонную черту общая и нижняя облачность в баллах и высота нижней границы облаков в метрах; квадратными скобками обозначены формы облаков: Ci - перистые, Cs - перисто-слоистые, Cc - перисто-кучевые, Ac - высококучевые, As - высокослоистые, Sc - слоисто-кучевые, Ns - слоисто-дождевые, Cu - кучевые, Cb - кучево-дождевые. Подробнее классификацию облаков см. в Атласе облаков (PDF).
T - Температура воздуха - температура, измеренная на высоте 2 м над землей.
Td - Температура точки росы - температура, при понижении до которой содержащийся в воздухе водяной пар достигнет насыщения.
f - Относительная влажность воздуха - влажноcть воздуха, измеренная на высоте 2 м над землей.
Te - Эффективная температура - температура, которую ощущает одетый по сезону человек в тени. Характеристика душности погоды. При расчете учитывается влияние влажности воздуха и скорости ветра на теплоощущения человека.
Tes - Эффективная температура на солнце - температура, которую ощущает человек, с поправкой на солнечный нагрев. Характеристика знойности погоды. Зависит от высоты солнца над горизонтом, облачности и скорости ветра. Ночью, в пасмурную погоду, а также при ветре 12 м/с и более поправка равна нулю.
P - Атмосферное давление - приведенное к уровню моря атмосферное давление.
Po - Атмосферное давление - измеренное на уровне метеостанции атмосферное давление.
Tmin - Минимальная температура - минимум температуры воздуха на высоте 2 м над землей.
Tmax - Максимальная температура - максимум температуры воздуха на высоте 2 м над землей.
R - Количество осадков - Количество выпавших осадков за период времени, мм. При наведении курсора мыши на число - период времени, за который выпало указанное количество осадков.
R24 - Количество осадков - Количество выпавших осадков за 24 часа, мм.
S - Снежный покров - Высота снежного покрова, см. При наведении курсора мыши на число - состояние снежного покрова и степень покрытия местности в баллах.